Location: Namasale
(1.5000°N, 32.6167°E)
Time: 17:44:18
(UTC+00:00)

Courier 1B - Pass Details

Date: 28 April 2021
Orbit: 962 x 1209 km, 28.3° (Epoch: 09 May)

Event Time Altitude Azimuth Distance (km) Brightness Sun altitude
Rises 14:09:14 0° 307° (NW) 3,642 11.6 24.0°
Reaches altitude 10° 14:11:55 10° 311° (NW) 2,685 11.1 23.4°
Maximum altitude 14:18:16 60° 30° (NNE) 1,089 8.0 21.9°
Drops below altitude 10° 14:24:42 10° 109° (ESE) 2,722 9.3 20.3°
Sets 14:27:26 0° 112° (ESE) 3,695 9.9 19.6°
